Regional Weather Roundup
Issued by NWS

Home | Current Version | Previous Version | Text Only | Print | Product List | Glossary On
Versions: 1 2 3 4 5 6 7 8 9 10 11 12 13 14 15 16 17 18 19 20 21 22 23 24 25 26 27 28 29 30 31 32 33 34 35 36 37 38 39 40 41 42 43 44 45 46 47 48 49 50
000
ASUS43 KIND 140509
RWRIN

WEATHER ROUNDUP FOR INDIANA
NATIONAL WEATHER SERVICE INDIANAPOLIS IN
100 AM EDT MON JUL 14 2014

NOTE: "FAIR" INDICATES FEW OR NO CLOUDS BELOW 12,000 FEET WITH NO
SIGNIFICANT WEATHER AND/OR OBSTRUCTIONS TO VISIBILITY.

* - STATION DOES NOT REPORT WEATHER SUCH AS PRECIPITATION OR FOG.

+ - STATION NOT QUALITY CONTROLLED BY THE NATIONAL WEATHER SERVICE.
    USE DATA WITH CAUTION...ESPECIALLY DEWPOINT AND RELATIVE
    HUMIDITY OBSERVATIONS.

INZ001>003-010>013-019-020-140600-
NORTHWEST INDIANA

CITY           SKY/WX    TMP DP  RH WIND       PRES   REMARKS
GARY /AIRPORT/ CLEAR     74  67  78 W6        29.90S
KNOX *+        CLOUDY    72  67  84 W6        29.89F
LA PORTE +     MOCLDY    71  66  83 W6        29.91S
MICHIGAN CITY+ MOCLDY    72  63  73 SW5       29.89S
MONTICELLO +   PTCLDY    67  65  93 CALM      29.91S
RENSSELAER +   CLOUDY    70  70 100 SW5       29.91F
VALPARAISO     MOCLDY    71  66  84 W7        29.90F

$$

LMZ046-743>745-140600-
SOUTHERN LAKE MICHIGAN

STATION/POSITION TIME  TEMP WIND        PRES
                       AIR  DIR/SP/G
                 (UTC) (F)  (DEG/KT/KT) (MB)
MICHIGAN CITY    0500   74  220/ 17/ 20   N/A

$$

INZ004-005-014>016-021>024-140600-
NORTH CENTRAL INDIANA

CITY           SKY/WX    TMP DP  RH WIND       PRES   REMARKS
GOSHEN         MOCLDY    72  67  84 SW9       29.89F
LOGANSPORT +   PTCLDY    64  61  88 SW5       29.92S
PERU/GRISSOM   PTCLDY    67  67 100 SW5       29.92S
ROCHESTER +    PTCLDY    73  66  78 W6        29.91S
SOUTH BEND     PTCLDY    73  65  75 SW8       29.89F
WARSAW +       MOCLDY    72  66  83 SW6       29.91S

$$

INZ006>009-017-018-025>027-140600-
NORTHEAST INDIANA

CITY           SKY/WX    TMP DP  RH WIND       PRES   REMARKS
ANGOLA *+      CLEAR     66  57  72 CALM      29.90S
AUBURN +       PTCLDY    68  63  83 S5        29.91F
FORT WAYNE     MOCLDY    67  63  87 SW5       29.92S
HUNTINGTON +   PTCLDY    67  67  98 CALM      29.92S

$$

INZ028-029-035-036-043>045-051>053-140600-
WEST CENTRAL INDIANA

CITY           SKY/WX    TMP DP  RH WIND       PRES   REMARKS
GREENCASTLE +  CLOUDY    70  70 100 CALM      29.93S
LAFAYETTE      MOCLDY    67  65  93 CALM      29.92S
TERRE HAUTE    CLOUDY    73  71  93 CALM      29.92S

$$

INZ030>032-037>040-046>048-054>057-064-065-140600-
CENTRAL INDIANA

CITY           SKY/WX    TMP DP  RH WIND       PRES   REMARKS
CP ATTERBURY + MOCLDY    73  72  94 S3        29.92F
GREENWOOD *+   MOCLDY    75  73  94 CALM      29.93
INDIANAPOLIS   MOCLDY    72  70  93 SW6       29.91F
-EAGLE CREEK   MOCLDY    73  69  87 CALM      29.91F
KOKOMO *+      PTCLDY    66  63  88 CALM      29.92S
MARION +       PTCLDY    65  64  96 CALM      29.93S
MT COMFORT *+  PTCLDY    68 N/A N/A CALM      29.92F
SHELBYVILLE    PTCLDY    74  70  87 S5        29.92F
ZIONSVILLE +   PTCLDY    68  65  89 CALM      29.93F

$$

INZ033-034-041-042-049-050-058-059-140600-
EAST CENTRAL INDIANA

CITY           SKY/WX    TMP DP  RH WIND       PRES   REMARKS
MUNCIE         PTCLDY    71  67  87 CALM      29.92F

$$

INZ060-061-067>069-081>083-085>088-140600-
SOUTHWEST INDIANA

CITY           SKY/WX    TMP DP  RH WIND       PRES   REMARKS
EVANSVILLE     LGT RAIN  73  70  90 SW6       29.94F
HUNTINGBURG *+ CLOUDY    75  68  78 W12       29.95S
WASHINGTON +   CLOUDY    73  73 100 S7        29.91F

$$

INZ062-063-066-070>080-084-089>092-140600-
SOUTH CENTRAL AND SOUTHEAST INDIANA

CITY           SKY/WX    TMP DP  RH WIND       PRES   REMARKS
BLOOMINGTON    MOCLDY    72  69  90 CALM      29.92F

$$




USA.gov is the U.S. government's official web portal to all federal, state and local government web resources and services.